Weather History for Minneapolis, MN

Change the Weather History Date:

Saturday, October 20, 2012

  Actual Average Record
Temperature  
Mean Temperature 44 °F 47 °F  
Max Temperature 54 °F 56 °F 83 °F (1953)
Min Temperature 34 °F 38 °F 18 °F (1960)
Degree Days  
Heating Degree Days 21 18  
Month to date heating degree days 315 282  
Since 1 July heating degree days 440 455  
Cooling Degree Days 0 0  
Month to date cooling degree days 0 3  
Year to date cooling degree days 1131 750  
Moisture  
Dew Point 39 °F    
Average Humidity 82    
Maximum Humidity 100    
Minimum Humidity 64    
Precipitation  
Precipitation 0.00 in 0.07 in 2.64 in (1934)
Month to date precipitation 0.29 1.73  
Year to date precipitation 26.31 26.98  
Snow  
Snow 0.00 in 0.00 in 3.00 in (1916)
Month to date snowfall 0.0 0.1  
Since 1 July snowfall T 0.1  
Since 1 September snowfall 0.0 0.1  
Snow Depth 0.00 in    
Sea Level Pressure  
Sea Level Pressure 29.80 in    
Wind  
Wind Speed 4 mph (SSW)    
Max Wind Speed 14 mph    
Max Gust Speed 17 mph    
Visibility 6 miles    
Events Fog    
T = Trace of Precipitation, MM = Missing Value Source: NWS Daily Summary

Daily Weather History Graph

Daily Weather History Graph

Search for Another Location

Airport:

Trip Planner

Search our weather history database for the weather conditions in past years. The results will help you decide how hot, cold, wet, or windy it might be!

Date:

Astronomy

Oct. 20, 2012 Rise Set
Actual Time 7:35 AM CDT 6:18 PM CDT
Civil Twilight 7:05 AM CDT 6:48 PM CDT
Nautical Twilight 6:31 AM CDT 7:22 PM CDT
Astronomical Twilight 5:57 AM CDT 7:56 PM CDT
Moon 1:19 PM CDT (10/20) 10:58 PM CDT (10/20)
Length of Visible Light 11h 42m
Length of Day
10h 43m
Waxing Crescent, 34% of the Moon is Illuminated
Oct 20
Waxing Crescent
Oct 21
First Quarter
Oct 29
Full
Nov 6
Last Quarter
Nov 13
New

Hourly Weather History & Observations

Time (CDT) Temp. Windchill Dew Point Humidity Pressure Visibility Wind Dir Wind Speed Gust Speed Precip Events Conditions
12:53 AM 39.0 °F - 36.0 °F 89% 29.75 in 8.0 mi Calm Calm - N/A   Partly Cloudy
12:58 AM 39.2 °F - 35.6 °F 87% 29.74 in 9.0 mi Calm Calm - N/A   Partly Cloudy
1:53 AM 39.0 °F - 36.0 °F 89% 29.77 in 9.0 mi Calm Calm - N/A Fog Patches of Fog
2:31 AM 37.4 °F - 35.6 °F 93% 29.75 in 9.0 mi Calm Calm - N/A Fog Patches of Fog
2:44 AM 37.4 °F - 35.6 °F 93% 29.75 in 9.0 mi Calm Calm - N/A Fog Patches of Fog
2:53 AM 37.0 °F - 35.1 °F 93% 29.76 in 9.0 mi Calm Calm - N/A Fog Patches of Fog
3:31 AM 37.4 °F - 35.6 °F 93% 29.75 in 9.0 mi Calm Calm - N/A Fog Patches of Fog
3:44 AM 37.4 °F - 35.6 °F 93% 29.75 in 7.0 mi Calm Calm - N/A Fog Patches of Fog
3:53 AM 36.0 °F - 34.0 °F 93% 29.77 in 7.0 mi Calm Calm - N/A Fog Patches of Fog
4:00 AM 35.6 °F - 33.8 °F 93% 29.76 in 1.5 mi Calm Calm - N/A Fog Patches of Fog
4:02 AM 35.6 °F - 33.8 °F 93% 29.76 in 9.0 mi Calm Calm - N/A Fog Patches of Fog
4:33 AM 35.6 °F - 35.6 °F 100% 29.76 in 8.0 mi Calm Calm - N/A Fog Patches of Fog
4:53 AM 36.0 °F 32.1 °F 35.1 °F 97% 29.78 in 8.0 mi SSW 4.6 mph - N/A Fog Patches of Fog
5:00 AM 35.6 °F 31.7 °F 33.8 °F 93% 29.77 in 5.0 mi SSW 4.6 mph - N/A Fog Patches of Fog
5:09 AM 35.6 °F 32.8 °F 33.8 °F 93% 29.77 in 0.5 mi SW 3.5 mph - N/A Fog Fog
5:14 AM 33.8 °F 29.6 °F 33.8 °F 100% 29.77 in 0.2 mi WSW 4.6 mph - N/A Fog Fog
5:37 AM 35.6 °F - 35.6 °F 100% 29.77 in 0.2 mi Calm Calm - N/A Fog Fog
5:53 AM 35.1 °F - 34.0 °F 96% 29.80 in 0.2 mi Calm Calm - N/A Fog Fog
6:31 AM 35.6 °F - 35.6 °F 100% 29.79 in 0.2 mi Calm Calm - N/A Fog Fog
6:53 AM 37.0 °F - 37.0 °F 100% 29.81 in 0.2 mi Calm Calm - N/A Fog Fog
7:08 AM 37.4 °F 32.8 °F 37.4 °F 100% 29.79 in 0.2 mi SSW 5.8 mph - N/A Fog Fog
7:16 AM 37.4 °F - 37.4 °F 100% 29.78 in 0.2 mi Calm Calm - N/A Fog Fog
7:37 AM 37.4 °F 32.8 °F 37.4 °F 100% 29.79 in 0.1 mi SW 5.8 mph - N/A Fog Fog
7:53 AM 37.9 °F 35.5 °F 37.9 °F 100% 29.81 in 0.1 mi SSW 3.5 mph - N/A Fog Fog
8:53 AM 39.9 °F - 39.0 °F 97% 29.83 in 0.1 mi Calm Calm - N/A Fog Fog
9:05 AM 39.2 °F 37.0 °F 39.2 °F 100% 29.81 in 0.5 mi ESE 3.5 mph - N/A Fog Fog
9:29 AM 39.2 °F 35.9 °F 39.2 °F 100% 29.81 in 0.2 mi ESE 4.6 mph - N/A Fog Fog
9:38 AM 39.2 °F - 39.2 °F 100% 29.81 in 0.1 mi Calm Calm - N/A Fog Fog
9:53 AM 41.0 °F - 41.0 °F 100% 29.83 in 0.1 mi Calm Calm - N/A Fog Fog
10:10 AM 41.0 °F 38.0 °F 41.0 °F 100% 29.82 in 0.2 mi SW 4.6 mph - N/A Fog Fog
10:35 AM 42.8 °F 41.1 °F 42.8 °F 100% 29.83 in 0.8 mi SSW 3.5 mph - N/A   Overcast
10:46 AM 42.8 °F - 42.8 °F 100% 29.83 in 1.0 mi Calm Calm - N/A   Overcast
10:53 AM 42.1 °F 40.2 °F 42.1 °F 100% 29.84 in 1.5 mi SW 3.5 mph - N/A   Overcast
11:04 AM 42.8 °F 41.1 °F 42.8 °F 100% 29.83 in 2.5 mi SW 3.5 mph - N/A   Overcast
11:12 AM 42.8 °F 39.3 °F 42.8 °F 100% 29.83 in 3.0 mi SSW 5.8 mph - N/A   Overcast
11:31 AM 42.8 °F 38.6 °F 42.8 °F 100% 29.83 in 5.0 mi SW 6.9 mph - N/A   Overcast
11:53 AM 44.1 °F 40.8 °F 42.1 °F 93% 29.84 in 5.0 mi South 5.8 mph - N/A   Overcast
12:01 PM 46.4 °F 42.9 °F 42.8 °F 87% 29.82 in 6.0 mi South 6.9 mph - N/A   Overcast
12:53 PM 50.0 °F - 42.8 °F 76% 29.81 in 10.0 mi South 8.1 mph - N/A   Mostly Cloudy
1:00 PM 50.0 °F - 41.0 °F 71% 29.81 in 10.0 mi Variable 5.8 mph - N/A   Mostly Cloudy
1:53 PM 50.0 °F - 39.9 °F 68% 29.81 in 10.0 mi Calm Calm - N/A   Mostly Cloudy
2:20 PM 51.8 °F - 41.0 °F 67% 29.78 in 10.0 mi Variable 6.9 mph - N/A   Mostly Cloudy
2:53 PM 53.1 °F - 41.0 °F 64% 29.79 in 10.0 mi ESE 4.6 mph - N/A   Scattered Clouds
3:53 PM 54.0 °F - 41.0 °F 62% 29.80 in 10.0 mi SSW 5.8 mph - N/A   Scattered Clouds
4:53 PM 53.1 °F - 41.0 °F 64% 29.79 in 10.0 mi South 8.1 mph - N/A   Mostly Cloudy
5:41 PM 50.0 °F - 42.8 °F 76% 29.79 in 10.0 mi SW 10.4 mph - N/A   Scattered Clouds
5:53 PM 50.0 °F - 42.1 °F 74% 29.81 in 10.0 mi SW 9.2 mph - N/A   Scattered Clouds
6:07 PM 48.2 °F - 42.8 °F 82% 29.80 in 10.0 mi SW 9.2 mph - N/A   Mostly Cloudy
6:53 PM 48.9 °F - 42.1 °F 77% 29.82 in 10.0 mi SSW 4.6 mph - N/A   Overcast
7:53 PM 50.0 °F - 43.0 °F 77% 29.81 in 10.0 mi South 5.8 mph - N/A   Overcast
8:53 PM 48.9 °F - 42.1 °F 77% 29.83 in 10.0 mi SSE 6.9 mph - N/A   Overcast
9:53 PM 48.0 °F - 42.1 °F 80% 29.83 in 10.0 mi SSE 8.1 mph - N/A   Overcast
10:03 PM 48.2 °F - 42.8 °F 82% 29.82 in 10.0 mi SE 8.1 mph - N/A   Overcast
10:53 PM 46.9 °F - 42.1 °F 83% 29.83 in 10.0 mi SE 8.1 mph - N/A   Overcast
11:53 PM 46.9 °F - 42.1 °F 83% 29.84 in 9.0 mi SE 6.9 mph - N/A   Mostly Cloudy